Regional Weather Roundup
Issued by NWS

Home | Current Version | Previous Version | Text Only | Print | Product List | Glossary Off
Versions: 1 2 3 4 5 6 7 8 9 10 11 12 13 14 15 16 17 18 19 20 21 22 23 24 25 26 27 28 29 30 31 32 33 34 35 36 37 38 39 40 41 42 43 44 45 46 47 48 49 50

903
ASUS45 KPSR 230110
RWRAZ

ARIZONA HOURLY REGIONAL WEATHER ROUNDUP
NATIONAL WEATHER SERVICE PHOENIX AZ
600 PM MST SUN APR 22 2018

NOTE: FAIR INDICATES FEW OR NO CLOUDS BELOW 12,000 FEET WITH NO
SIGNIFICANT WEATHER AND/OR OBSTRUCTIONS TO VISIBILITY.

AZZ001>003-036-230200-
NORTHWEST ARIZONA

CITY           SKY/WX    TMP DP  RH WIND       PRES   REMARKS
BULLHEAD CITY  SUNNY     95  14   5 S7        29.74F
KINGMAN        SUNNY     82  23  11 SW13      29.92S
$$

AZZ004>008-015-016-018-230200-
NORTH CENTRAL ARIZONA

CITY           SKY/WX    TMP DP  RH WIND       PRES   REMARKS
GRAND CANYON   MOSUNNY   70  13  11 W8        30.09R
WILLIAMS       MOSUNNY   68   9  10 VRB6G12   30.07S
PRESCOTT       SUNNY     75  18  11 SW14      30.01R
FLAGSTAFF      MOSUNNY   65  17  15 SW10      30.11S
PAYSON         MOSUNNY   73  16  11 VRB6G13   30.03R
PAGE           MOSUNNY   77  20  12 NE8       29.94F
$$

AZZ009>014-017-230200-
NORTHEAST ARIZONA

CITY           SKY/WX    TMP DP  RH WIND       PRES   REMARKS
WINSLOW        SUNNY     76  18  11 NE3       29.99F
SAINT JOHNS    FAIR      71  19  14 NE5       30.02S
WINDOW ROCK    PTSUNNY   68  11  11 S9        30.08S
SHOW LOW       MOSUNNY   70  14  11 SW9       30.09S
$$

AZZ540-542>544-546-548-230200-
GREATER PHOENIX AREA

CITY           SKY/WX    TMP DP  RH WIND       PRES   REMARKS
PHOENIX        MOSUNNY   92  26   9 W14       29.77F
BUCKEYE        MOSUNNY   90  27  10 SE7       29.80S
GLENDALE       PTSUNNY   91  21   8 S9G16     29.81S
LUKE AFB       MOSUNNY   91  21   8 S9        29.78S
DEER VALLEY    MOSUNNY   89  22   8 SW6       29.80S
SCOTTSDALE     MOSUNNY   90  29  11 S6        29.81F
MESA-FALCON    MOSUNNY   90  27  10 SW6       29.80F
MESA-GATEWAY   MOSUNNY   90  25   9 W7        29.81F
CHANDLER       MOSUNNY   91  21   8 VRB5      29.79
$$

AZZ539-553-230200-
SOUTHWEST MARICOPA COUNTY AND PINAL COUNTY

CITY           SKY/WX    TMP DP  RH WIND       PRES   REMARKS
CASA GRANDE    SUNNY     90  23   9 SW5       29.82S
GILA BEND      FAIR      92  16   6 NW14      29.78R
$$

AZZ503-504-507>509-230200-
SOUTHEAST ARIZONA

CITY           SKY/WX    TMP DP  RH WIND       PRES   REMARKS
TUCSON         MOSUNNY   87  17   7 W6        29.89S
DAVIS-MONTHAN  SUNNY     88  19   8 N10       29.87S
RYAN FIELD     SUNNY     86  21   9 NW6       29.88S
NOGALES        MOSUNNY   81  15   8 SW12      29.96S
SIERRA VISTA   MOSUNNY   76  24  14 SW8       30.01S
DOUGLAS        MOCLDY    80  26  13 NW13G20   29.96R
SAFFORD        PTSUNNY   83  19   9 CALM      29.89S
$$

AZZ532-230200-
SOUTHWEST ARIZONA

CITY           SKY/WX    TMP DP  RH WIND       PRES   REMARKS
YUMA           SUNNY     92  34  13 W7        29.78S
$$

CAZ041-043-047-048-061-525>527-560>570-230200-
SOUTHERN CALIFORNIA

CITY           SKY/WX    TMP DP  RH WIND       PRES   REMARKS
DOWNTOWN L.A.  SUNNY     72  53  51 VRB3      29.88S
L.A. AIRPORT   MOSUNNY   65  57  75 W12       29.90S
SAN DIEGO      MOSUNNY   65  57  75 S8        29.94S
BURBANK        SUNNY     81  48  31 S8        29.88R
ONTARIO        MOSUNNY   82  36  19 W20G25    29.88S
RIVERSIDE      SUNNY     83  38  20 W15       29.88R
PALM SPRINGS   SUNNY     97  30   9 NW22      29.76S
EL CENTRO NAS  SUNNY     95  25   8 E5        29.76S
IMPERIAL       SUNNY     96  23   7 CALM      29.74F
BLYTHE         SUNNY     94  25   8 SE7       29.76S
NEEDLES          N/A     97  17   5 SE7       29.77S
$$

NVZ020-UTZ003-230200-
SOUTHERN NEVADA-UTAH

CITY           SKY/WX    TMP DP  RH WIND       PRES   REMARKS
LAS VEGAS      MOSUNNY   90  20   7 SE3       29.81F
SALT LAKE CITY PTSUNNY   75  29  18 SE5       29.92F
$$

NMZ009-TXZ055-230200-
NEW MEXICO-WEST TEXAS

CITY           SKY/WX    TMP DP  RH WIND       PRES   REMARKS
ALBUQUERQUE    MOCLDY    72  27  18 S14       30.04S
EL PASO        MOCLDY    74  32  21 S5        30.01S
$$


........................KEY........................
SKY/WX - SKY CONDITION/WEATHER
TMP    - TEMPERATURE IN FAHRENHEIT
DP     - DEW POINT IN FAHRENHEIT
RH     - RELATIVE HUMIDITY IN PERCENT
WIND   - DIRECTION AND SPEED IN MILES PER HOUR (MPH)
VRB    - VARIABLE WIND DIRECTION
PRES   - MEAN SEA LEVEL PRESSURE IN INCHES OF MERCURY
         F - FALLING PRESSURE   R - RISING PRESSURE
         S - STEADY PRESSURE
VSB    - VISIBILITY IN MILES
HX     - HEAT INDEX IN FAHRENHEIT
WCI    - WIND CHILL INDEX IN FAHRENHEIT
TC     - TEMPERATURE IN CELSIUS WHICH IS ALSO KNOWN AS
         TEMPERATURE IN CENTIGRADE
AFB    - AIR FORCE BASE
         LUKE AFB IS LUKE AIR FORCE BASE
         DAVIS-MONTHAN IS DAVIS-MONTHAN AIR FORCE BASE
NAS    - NAVAL AIR STATION
         EL CENTRO NAS IS EL CENTRO NAVAL AIR STATION
N/A    - NOT AVAILABLE





USA.gov is the U.S. government's official web portal to all federal, state and local government web resources and services.